Flag for Poland Weather past 2 weeks in Włocławek, Poland

Now
42 °F

Overcast.


Feels Like: 40 °F
Forecast: 47 / 72 °F
Wind: 3 mph from Southeast

Location: Plock


UV Index: 3 (Moderate)

Visibility: 9 mi


Pressure: 29.85 "Hg

Humidity: 80%

Dew point: 36 °F

Location of WłocławekLocation

Historic Weather in Włocławek

°F

Włocławek temperature yesterday

Maximum temperature yesterday: 53 °F (at 5:00 PM)
Minimum temperature yesterday: 28 °F (at 6:00 AM)
Average temperature yesterday: 41 °F

Past Weeks' High & Low Weather Summary

 TemperatureHumidityPressure
High71 °F (Apr 8, 1:00 PM)98% (Apr 11, 6:00 AM)30.41 "Hg (Apr 11, 6:00 AM)
Low28 °F (Apr 17, 6:00 AM)28% (Apr 5, 3:00 PM)29.60 "Hg (Apr 14, 4:00 PM)
Average46 °F72%30.00 "Hg
* Reported Apr 3 8:00 AM — Apr 18 8:00 AM, Włocławek, Weather by CustomWeather, © 2014

Note: Actual official high and low records may vary slightly from our data, if they occured in-between our weather recording intervals... More about our weather records

Advertising

Historic Weather Conditions — Data for Previous 24 hours

 ConditionsComfort  
Time TempWeatherWind HumidityBarometerVisibility
8:00 AM
Apr 18
42 °FOvercast.3 mph80%29.85 "Hg9 mi
7:00 AM38 °FOvercast.2 mph85%29.88 "Hg9 mi
6:00 AM35 °FOvercast.2 mph86%29.88 "Hg7 mi
5:00 AM35 °FPassing clouds.2 mph83%29.90 "Hg7 mi
4:00 AM36 °FClear.2 mph81%29.91 "Hg7 mi
3:00 AM37 °FPassing clouds.2 mph78%29.93 "Hg7 mi
2:00 AM38 °FPassing clouds.3 mph77%29.96 "Hg7 mi
6:00 PM
Apr 17
52 °FOvercast.2 mph32%30.13 "Hg22 mi
5:00 PM53 °FOvercast.2 mph32%30.16 "Hg22 mi
4:00 PM53 °FOvercast.2 mph33%30.19 "Hg22 mi
3:00 PM52 °FOvercast.3 mph34%30.23 "Hg22 mi
2:00 PM51 °FPartly sunny.2 mph33%30.26 "Hg19 mi
1:00 PM50 °FPartly sunny.2 mph37%30.29 "Hg22 mi
12:00 PM49 °FScattered clouds.2 mph39%30.32 "Hg22 mi
11:00 AM48 °FPassing clouds.2 mph41%30.34 "Hg22 mi
10:00 AM46 °FPassing clouds.1 mph45%30.36 "Hg22 mi
9:00 AM42 °FPassing clouds.1 mph69%30.38 "Hg14 mi
Weather by CustomWeather, © 2014

See weather overview